Starlink 32405

operational
NORAD ID: 61636 Int'l Des: 2024-191 Owner: SPXS Country: US Constellation: starlink
LEOCIRCULAR

关于 Starlink 32405

正在加载描述...

实时位置

正在加载3D地球...

即将过境

高度历史

Altitude vs Time

uPlot chart will show altitude changes over time

两行轨道根数

1 61636U 24191R 26034.30696023 -.00002784 00000-0 -91708-4 0 9995
2 61636 43.0038 352.5207 0000873 280.7032 79.3721 15.27574147 72232
Epoch: Feb 3, 2026 • Age: 11 hours

当前状态

高度 486.4 km
速度 7.63 km/s
星下点 41.69°N, 7.38°E
发射日期 Oct 23, 2024
运行时间 1.2 years
类型 internet

技术详情

分类 Payload
质量 730.00 kg
干质量 700.00 kg
总质量 730.00 kg
长度 0.30 m
直径 4.10 m
跨度 29.00 m
形状 Box + pan
制造商 SPXS
平台类型 Starlink V2M
阶段状态 In Orbit
所有者/国家 SPXS/US

大型星座

Loading constellations...